User: anonymous   Login
Location: Table Mountain
(47.2500°N, 120.5778°W)
Time: 01:04:35
(UTC-08:00)
Language:

UKube-1 - Orbit

View from above orbital plane
View from above orbital plane
View from above satellite
View from above satellite

Ground track
Ground track

The orbit data is extracted from the following two-line orbital elements,

1 40074U 14037F   19019.00030822  .00000166  00000-0  27159-4 0  9996
2 40074  98.4118 172.5854 0004736 352.9223   7.1920 14.83950705245301
Epoch (UTC): 19 January 2019 00:00:26
Eccentricity: 0.0004736
inclination: 98.4118°
perigee height: 613 km
apogee height: 620 km
right ascension of ascending node: 172.5854°
argument of perigee: 352.9223°
revolutions per day: 14.83950705
mean anomaly at epoch: 7.1920°
orbit number at epoch: 24530

The dashed part of the orbit path shows where the satellite is in the earth's shadow,  

DLR